Погода в Курске

Погода в Курске : погода сейчас, прогноз погоды и архив. Всё, что Вы хотите узнать о погоде в Курске!

Хотите узнать прогноз погоды в Курске? Тогда Вам сюда: Погода в Курске

Поиск расширенной информации на нашем сайте:

Другие новости

Новости СМИ2

Главная страница сайта

Новости сайта

03.07.2017

Напоминаем, что на нашем специализированном сайте Метеоцентр.Азия вы можете получить высокодетализированные автоматические прогнозы погоды по пунктам России, СНГ и мира в авиационном формате (включающие направление и скорость ветра, видимость, явления погоды, количество и форму облачности, нижнюю и верхнюю границу облачности).


Погода в Курске - сегодня

Время (UTC), дата Ветер
(°,м/с) 
Видим.   Явления Облачность Т
(°С)
Тd
(°С)
f(%) Тe
(°С)
Pmin
(гПа)
dP
(гПа)
Po
(мм)
O2
(г/м3)
Тmin Tmax R s Состояние
почвы
00 19.09.17 260 (З) 10 км    ясно 
+12.7 +4.8 59 +13  1013.8  0.9  738  283           
03 19.09.17 220 (ЮЗ) 10 км    4/0 верхняя 
[Ci fib]
+10.2 +4.5 68 +10  1015.3  1.2  739  286  +10.2         
06 19.09.17 280 (З) 10 км    3/0 верхняя 
[Ci fib]
+12.7 +5.4 61 +12  1017  1.9  741  284  +9.6        сухая 
09 19.09.17 280 (З) н/о    н/о 
+17.5 +3.8 40 +18  1017  1.9  741  280           
12 19.09.17 270 (З) 10 км    3/0 верхняя 
[Ci fib]
+19.7 +3.4 34 +21  1017.9  0.1  742  278           
15 19.09.17 300 (СЗ) 10 км    1/0 верхняя 
[Ci fib]
+18.7 +4.4 39 +20  1018.6  0.6  742  279           
18 19.09.17 350 (С) 10 км    3/0 верхняя 
[Ci fib]
+14.4 +5.8 56 +15  1020.1  1.1  743  283    +19.9       
21 19.09.17 030 (СВ) 10 км    ясно 
+12.3 +5.7 64 +13  1021.1  1.1  744  286           
00 20.09.17 070 (В) 10 км    ясно 
+10.1 +4.9 70 +11  1022.3  744  288           
03 20.09.17 050 (СВ) 10 км    6/0 средняя, верхняя 
[Ac trans|Ci fib]
+9.5 +4.6 71 +11  1022.7  0.3  745  289  +9.4         
06 20.09.17 100 (В) 10 км    4/0 средняя, верхняя 
[Ac lent|Ci fib]
+13.1 +4.3 55 +13  1022.5  0.2  745  286  +8.2        сухая 
09 20.09.17 100 (В) 2{10}  10 км    6/0 верхняя 
[Ci fib]
+17.9 +4.3 41 +19  1021.7  0.2  744  281           
12 20.09.17 100 (В) 10 км    3/0 средняя, верхняя 
[Ac lent|Ci fib]
+20.6 +2.6 30 +21  1019.8  -1.5  743  278           
15 20.09.17 070 (В) 10 км    6/0 средняя, верхняя 
[Ac lent|Ci sp]
+18.8 +2.3 33 +20  1019.3  -0.6  743  280           
18 20.09.17 070 (В) 10 км    5/0 верхняя 
[Ci sp]
+15.3 +4 47 +16  1019.5  -0.2  743  283    +21       
21 20.09.17 090 (В) 10 км    5/0 верхняя 
[Ci sp]
+14.4 +4.4 51 +15  1018.9  -0.6  742  283           
00 21.09.17 020 (С) 10 км    3/0 верхняя 
[Ci sp]
+12.9 +5 59 +13  1019.8  0.7  743  285           
03 21.09.17 050 (СВ) 10 км    8/0 средняя, верхняя 
[Ac lent|Ci fib]
+10.4 +5.4 71 +10  1019.6  -0.4  742  287  +10.4         
06 21.09.17 060 (СВ) 10 км    8/0 верхняя 
[Ci fib]
+13.4 +6.2 62 +13  1018.8  -0.5  742  284  +10.4        сухая 
09 21.09.17 070 (В) 10 км    5/0 верхняя 
[Ci fib]
+20.9 +7.7 43 +21  1017.8  0.1  742  276           
12 21.09.17 100 (В) 6-10{10}  10 км    1/0 средняя 
[Ac cast]
+26.4 +6.4 28 +26  1015.9  -1.4  741  271           
15 21.09.17 100 (В) 3{10}  10 км    1/0 средняя 
[Ac trans]
+23.5 +7.9 37 +24  1016.5  0.3  741  274           
18 21.09.17 090 (В) 4{11}  10 км    ясно 
+19.3 +6.4 43 +20  1018.4  1.4  742  278    +26.5       
21 21.09.17 090 (В) 10 км    ясно 
+16.6 +6 49 +17  1019.2  0.5  743  281           
00 22.09.17 060 (СВ) 10 км    ясно 
+14.4 +6 57 +15  1019.8  0.4  743  283           
Время (UTC), дата Ветер
(°,м/с) 
Видим.   Явления Облачность Т
(°С)
Тd
(°С)
f(%) Тe
(°С)
Pmin
(гПа)
dP
(гПа)
Po
(мм)
O2
(г/м3)
Тmin Tmax R s Состояние
почвы

Для получения пояснительной информации подведите курсор к названию столбца.

ПОГОДА в Курске - архив

Всё, что Вы хотите узнать о погоде в Курске - удобно и подробно!

Выберите нужную дату (начиная с 1 января 2015* года) и нажмите кнопку "Найти".
Будут отображены архивные сводки погоды по пункту Курск, начиная с указанной даты.


Отображать данные в формате CSV (для использования в таблицах Excel)


Внимание! Наш архив погоды предназначен исключительно для личного некоммерческого использования в познавательных целях. Если Вам необходимы официальные справки о состоянии погоды (для производственных, юридических, коммерческих и т.п. целей), обращайтесь в органы Росгидромета.

*Примечание: данная дата относится к архиву по метеостанциям СССР (Россия, СНГ, Балтия).
Архив по метеостанциям Зарубежной Европы и Азии (кроме Китая) хранится 10 дней, по другим регионам земного шара (Китай, Африка, Америка, Австралия, Океания) - 1 день.

Курск - район местоположения метеостанции


Название, широта, долгота, высота метеостанции:
Курск 51.8°ш. 36.2°д. 247 м над ур. моря [Российская Федерация]

Дополнительная информация

В oтличие oт бoльшинства пoгoдных сайтoв мы публикуем пoдрoбную метеoинфoрмацию в детальнoм прoфессиoнальнoм фoрмате.

Характеристики температуры и влажнoсти вoздуха измеряются на высoте 2 м в тени вдали oт зданий и деревьев.
Скoрoсть ветра измеряется на высoте 10 м (на урoвне рoста челoвека скoрoсть ветра ниже в 1.5-2 раза). Если метеoстанция нахoдится в гoрoде или в лесу, тo скoрoсть ветра занижена на 2-4 м/с пo сравнению с oткрытым местoм. Скoрoсть ветра над акватoриями крупных рек и oзёр, а также на вершинах хoлмoв на 2-5 м/с выше, чем в oбычных услoвиях.
Атмoсфернoе давление в разных тoчках местнoсти мoжет значительнo oтличаться oт давления на метеoстанции, в зависимoсти oт услoвий рельефа (при пoдъёме на 10 м давление пoнижается примернo на 1 мм рт.ст.).